AWQ405 WIII-WMKL

Flight info

Callsign AWQ405
Flight time N/A
Altitude 40000
Route DOLTA A585 PLB G579 VJB Y342 AROSO DCT VKL DCT TEPUS A457 VPG W525 KAPKO KAPKO1E
Aircraft A359/H-SDE2E3GHIJ3J4J5LM1ORWXY/LB1D1

Departure

Time N/A
Airport Soekarno-Hatta International Airport (WIII)

Arrival

Time 2026-04-27 15:16
Airport Langkawi International Airport (WMKL)
Time Latitude Longitude Altitude Speed Heading
2026-04-27 14:14 2.35115 102.81558 39883 ft 505 kts 289°
2026-04-27 14:14 2.36264 102.78243 39885 ft 505 kts 289°
2026-04-27 14:15 2.38554 102.71640 39881 ft 505 kts 289°
2026-04-27 14:15 2.40853 102.65014 39881 ft 504 kts 289°
2026-04-27 14:16 2.43152 102.58385 39876 ft 504 kts 289°
2026-04-27 14:16 2.45451 102.51757 39883 ft 504 kts 289°
2026-04-27 14:17 2.47747 102.45134 39876 ft 504 kts 289°
2026-04-27 14:17 2.50044 102.38507 39879 ft 505 kts 289°
2026-04-27 14:18 2.52342 102.31874 39873 ft 505 kts 289°
2026-04-27 14:18 2.54640 102.25245 39872 ft 505 kts 289°
2026-04-27 14:19 2.56937 102.18614 39867 ft 505 kts 289°
2026-04-27 14:19 2.59235 102.11982 39864 ft 505 kts 289°
2026-04-27 14:20 2.61536 102.05338 39867 ft 505 kts 289°
2026-04-27 14:20 2.63836 101.98697 39865 ft 505 kts 289°
2026-04-27 14:21 2.66129 101.92072 39860 ft 504 kts 289°
2026-04-27 14:21 2.68422 101.85448 39854 ft 504 kts 289°
2026-04-27 14:22 2.70712 101.78828 39856 ft 503 kts 289°
2026-04-27 14:22 2.73340 101.72358 39866 ft 503 kts 303°
2026-04-27 14:22 2.75571 101.69694 39859 ft 500 kts 319°
2026-04-27 14:23 2.78390 101.67686 39863 ft 497 kts 332°
2026-04-27 14:23 2.84611 101.64651 39853 ft 499 kts 335°
2026-04-27 14:24 2.90724 101.61341 39855 ft 500 kts 329°
2026-04-27 14:24 2.96589 101.57581 39874 ft 501 kts 327°
2026-04-27 14:25 3.02350 101.53655 39882 ft 500 kts 326°
2026-04-27 14:25 3.08057 101.49750 39882 ft 500 kts 326°
2026-04-27 14:26 3.13814 101.45839 39883 ft 500 kts 327°
2026-04-27 14:26 3.19576 101.41940 39880 ft 500 kts 327°
2026-04-27 14:27 3.25335 101.38045 39877 ft 500 kts 327°
2026-04-27 14:27 3.31096 101.34148 39874 ft 500 kts 326°
2026-04-27 14:28 3.36856 101.30250 39869 ft 500 kts 326°
2026-04-27 14:28 3.42615 101.26351 39867 ft 499 kts 327°
2026-04-27 14:29 3.48363 101.22459 39868 ft 499 kts 327°
2026-04-27 14:29 3.54112 101.18567 39867 ft 498 kts 327°
2026-04-27 14:30 3.59857 101.14676 39866 ft 498 kts 327°
2026-04-27 14:30 3.65594 101.10790 39865 ft 498 kts 327°
2026-04-27 14:31 3.71333 101.06902 39866 ft 498 kts 327°
2026-04-27 14:31 3.77066 101.03018 39867 ft 498 kts 327°
2026-04-27 14:32 3.82806 100.99128 39866 ft 498 kts 327°
2026-04-27 14:32 3.88543 100.95240 39868 ft 498 kts 327°
2026-04-27 14:33 3.94282 100.91350 39870 ft 498 kts 327°
2026-04-27 14:33 4.00022 100.87458 39871 ft 498 kts 327°
2026-04-27 14:34 4.05764 100.83564 39874 ft 498 kts 327°
2026-04-27 14:34 4.11505 100.79671 39877 ft 498 kts 327°
2026-04-27 14:35 4.17280 100.75827 39883 ft 498 kts 330°
2026-04-27 14:35 4.23473 100.72752 39883 ft 496 kts 337°
2026-04-27 14:36 4.28753 100.70500 39882 ft 496 kts 338°
2026-04-27 14:36 4.35104 100.67779 39883 ft 496 kts 337°
2026-04-27 14:37 4.41423 100.64984 39875 ft 496 kts 337°
2026-04-27 14:37 4.47718 100.62158 39870 ft 496 kts 336°
2026-04-27 14:38 4.54014 100.59324 39861 ft 496 kts 336°
2026-04-27 14:38 4.60313 100.56493 39855 ft 496 kts 336°
2026-04-27 14:39 4.66607 100.53665 39855 ft 496 kts 336°
2026-04-27 14:39 4.72903 100.50836 39855 ft 495 kts 336°
2026-04-27 14:40 4.79204 100.48005 39855 ft 496 kts 336°
2026-04-27 14:40 4.85494 100.45177 39855 ft 496 kts 336°
2026-04-27 14:41 4.91791 100.42346 39852 ft 496 kts 336°
2026-04-27 14:41 4.98091 100.39513 39853 ft 496 kts 336°
2026-04-27 14:42 5.04397 100.36677 39863 ft 497 kts 336°
2026-04-27 14:42 5.10700 100.33842 39881 ft 496 kts 336°
2026-04-27 14:43 5.17001 100.31006 39877 ft 496 kts 336°
2026-04-27 14:43 5.23302 100.28171 39877 ft 496 kts 336°
2026-04-27 14:44 5.29597 100.25337 39878 ft 496 kts 336°
2026-04-27 14:44 5.35834 100.22383 39878 ft 496 kts 335°
2026-04-27 14:45 5.42039 100.19365 39873 ft 495 kts 335°
2026-04-27 14:45 5.48241 100.16370 39879 ft 495 kts 335°
2026-04-27 14:46 5.54335 100.13446 39613 ft 472 kts 335°
2026-04-27 14:46 5.57225 100.12060 39323 ft 451 kts 335°
2026-04-27 14:46 5.60026 100.10718 38567 ft 444 kts 335°
2026-04-27 14:46 5.62789 100.09395 37516 ft 441 kts 335°
2026-04-27 14:47 5.65546 100.08077 36711 ft 434 kts 335°
2026-04-27 14:47 5.68209 100.06802 36022 ft 425 kts 335°
2026-04-27 14:47 5.70846 100.05539 35366 ft 416 kts 335°
2026-04-27 14:47 5.73446 100.04344 34731 ft 407 kts 339°
2026-04-27 14:48 5.76104 100.03463 34111 ft 398 kts 347°
2026-04-27 14:48 5.81455 100.03249 32840 ft 377 kts 13°
2026-04-27 14:48 5.83906 100.04061 32253 ft 365 kts 28°
2026-04-27 14:49 5.85978 100.05460 31688 ft 354 kts 44°
2026-04-27 14:49 5.87522 100.07332 31122 ft 344 kts 60°
2026-04-27 14:49 5.88445 100.09507 30578 ft 336 kts 76°
2026-04-27 14:49 5.88724 100.11808 30024 ft 330 kts 91°
2026-04-27 14:50 5.88386 100.14053 29401 ft 326 kts 106°
2026-04-27 14:50 5.87406 100.16081 28732 ft 323 kts 125°
2026-04-27 14:50 5.85802 100.17657 28232 ft 325 kts 144°
2026-04-27 14:50 5.83822 100.18733 27972 ft 323 kts 156°
2026-04-27 14:51 5.81671 100.19362 27701 ft 322 kts 168°
2026-04-27 14:51 5.79440 100.19703 27117 ft 328 kts 167°
2026-04-27 14:51 5.77218 100.20288 26436 ft 337 kts 158°
2026-04-27 14:51 5.75776 100.20895 25990 ft 342 kts 151°
2026-04-27 14:52 5.73004 100.22566 25080 ft 353 kts 143°
2026-04-27 14:52 5.70955 100.23989 24396 ft 364 kts 147°
2026-04-27 14:52 5.68639 100.25048 23863 ft 370 kts 162°
2026-04-27 14:52 5.66077 100.25325 23435 ft 374 kts 184°
2026-04-27 14:53 5.63570 100.24623 22849 ft 379 kts 206°
2026-04-27 14:53 5.61472 100.23024 22222 ft 384 kts 228°
2026-04-27 14:53 5.60033 100.20761 21614 ft 387 kts 246°
2026-04-27 14:53 5.59326 100.18158 20990 ft 389 kts 264°
2026-04-27 14:54 5.59374 100.15487 20401 ft 389 kts 280°
2026-04-27 14:54 5.60208 100.12880 19807 ft 388 kts 298°
2026-04-27 14:54 5.61745 100.10716 19249 ft 386 kts 316°
2026-04-27 14:54 5.63854 100.09080 18701 ft 384 kts 329°
2026-04-27 14:55 5.66165 100.07739 18133 ft 383 kts 334°
2026-04-27 14:55 5.68543 100.06534 17486 ft 383 kts 336°
2026-04-27 14:55 5.70942 100.05382 16862 ft 382 kts 336°
2026-04-27 14:55 5.73365 100.04306 16259 ft 380 kts 342°
2026-04-27 14:56 5.75927 100.03704 15661 ft 376 kts 356°
2026-04-27 14:56 5.78519 100.03825 15067 ft 372 kts 13°
2026-04-27 14:56 5.80905 100.04761 14479 ft 368 kts 32°
2026-04-27 14:56 5.82803 100.06444 13915 ft 364 kts 52°
2026-04-27 14:57 5.83981 100.08670 13328 ft 361 kts 73°
2026-04-27 14:57 5.84299 100.11146 12721 ft 358 kts 94°
2026-04-27 14:57 5.83697 100.13490 12544 ft 344 kts 115°
2026-04-27 14:57 5.82252 100.15324 12443 ft 330 kts 140°
2026-04-27 14:58 5.80237 100.16293 12349 ft 318 kts 167°
2026-04-27 14:58 5.78076 100.16280 12255 ft 306 kts 188°
2026-04-27 14:58 5.76006 100.16103 12150 ft 292 kts 181°
2026-04-27 14:58 5.74016 100.16040 12048 ft 280 kts 179°
2026-04-27 14:59 5.72105 100.16042 11953 ft 269 kts 178°
2026-04-27 14:59 5.70269 100.16086 11834 ft 258 kts 178°
2026-04-27 14:59 5.68588 100.15631 11743 ft 249 kts 210°
2026-04-27 14:59 5.67333 100.14495 11647 ft 240 kts 233°
2026-04-27 15:00 5.66590 100.13040 11534 ft 230 kts 252°
2026-04-27 15:00 5.66313 100.11499 11430 ft 220 kts 268°
2026-04-27 15:00 5.66441 100.10006 11318 ft 210 kts 284°
2026-04-27 15:00 5.66930 100.08676 11195 ft 198 kts 300°
2026-04-27 15:01 5.67725 100.07613 11085 ft 184 kts 318°
2026-04-27 15:01 5.68730 100.06903 10969 ft 182 kts 338°
2026-04-27 15:01 5.69906 100.06602 11863 ft 157 kts
2026-04-27 15:01 5.71175 100.06688 11645 ft 220 kts 10°
2026-04-27 15:02 5.72814 100.06451 10706 ft 258 kts 335°
2026-04-27 15:02 5.74313 100.05408 10336 ft 262 kts 320°
2026-04-27 15:02 5.75652 100.04214 10218 ft 252 kts 321°
2026-04-27 15:02 5.77009 100.03154 10128 ft 242 kts 326°
2026-04-27 15:03 5.78390 100.02245 10032 ft 232 kts 330°
2026-04-27 15:03 5.79758 100.01447 9928 ft 223 kts 333°
2026-04-27 15:03 5.81092 100.00727 9824 ft 213 kts 334°
2026-04-27 15:03 5.82381 100.00064 9719 ft 203 kts 335°
2026-04-27 15:04 5.83614 99.99447 9605 ft 193 kts 335°
2026-04-27 15:04 5.84800 99.98864 9421 ft 187 kts 336°
2026-04-27 15:04 5.85964 99.98298 9168 ft 184 kts 336°
2026-04-27 15:04 5.87107 99.97747 8919 ft 181 kts 336°
2026-04-27 15:05 5.88231 99.97205 8674 ft 177 kts 336°
2026-04-27 15:05 5.89328 99.96678 8420 ft 172 kts 336°
2026-04-27 15:05 5.90395 99.96166 8166 ft 167 kts 336°
2026-04-27 15:05 5.91469 99.95652 8078 ft 184 kts 336°
2026-04-27 15:06 5.92549 99.95139 8276 ft 179 kts 337°
2026-04-27 15:06 5.93814 99.94540 7307 ft 221 kts 336°
2026-04-27 15:06 5.95319 99.93792 6912 ft 264 kts 331°
2026-04-27 15:06 5.96664 99.92418 6847 ft 287 kts 304°
2026-04-27 15:07 5.97706 99.90688 6861 ft 291 kts 300°
2026-04-27 15:07 5.98722 99.88929 6864 ft 291 kts 301°
2026-04-27 15:07 5.99753 99.87183 6866 ft 291 kts 301°
2026-04-27 15:07 6.00799 99.85444 6864 ft 290 kts 302°
2026-04-27 15:08 6.01851 99.83713 6882 ft 291 kts 302°
2026-04-27 15:08 6.02908 99.81984 6873 ft 290 kts 302°
2026-04-27 15:08 6.03968 99.80255 6864 ft 290 kts 302°
2026-04-27 15:08 6.05028 99.78530 6868 ft 290 kts 302°
2026-04-27 15:09 6.06088 99.76806 6880 ft 290 kts 302°
2026-04-27 15:09 6.07149 99.75080 6846 ft 291 kts 302°
2026-04-27 15:09 6.08219 99.73338 6424 ft 294 kts 302°
2026-04-27 15:09 6.09271 99.71628 6094 ft 289 kts 302°
2026-04-27 15:10 6.10314 99.69931 5768 ft 277 kts 302°
2026-04-27 15:10 6.11290 99.68349 5466 ft 252 kts 303°
2026-04-27 15:10 6.12470 99.67156 5167 ft 236 kts 325°
2026-04-27 15:10 6.13757 99.66233 5027 ft 222 kts 327°
2026-04-27 15:11 6.15015 99.65346 4709 ft 219 kts 327°
2026-04-27 15:11 6.16256 99.64468 4373 ft 217 kts 327°
2026-04-27 15:11 6.17484 99.63598 4056 ft 215 kts 327°
2026-04-27 15:11 6.18858 99.63093 3678 ft 210 kts 359°
2026-04-27 15:12 6.20240 99.63318 3487 ft 193 kts 30°
2026-04-27 15:12 6.21198 99.64134 3402 ft 171 kts 47°
2026-04-27 15:12 6.21989 99.64931 3281 ft 151 kts 45°
2026-04-27 15:12 6.22730 99.65598 3150 ft 135 kts 42°
2026-04-27 15:13 6.23428 99.66164 3029 ft 125 kts 40°
2026-04-27 15:13 6.24160 99.66738 3024 ft 133 kts 40°
2026-04-27 15:13 6.24903 99.67299 2902 ft 135 kts 37°
2026-04-27 15:13 6.25659 99.67870 2737 ft 138 kts 39°
2026-04-27 15:14 6.26532 99.68529 2489 ft 168 kts 38°
2026-04-27 15:14 6.27449 99.69174 2132 ft 156 kts 35°
2026-04-27 15:14 6.28339 99.69783 1683 ft 153 kts 36°
2026-04-27 15:14 6.29228 99.70356 1258 ft 151 kts 33°
2026-04-27 15:15 6.30104 99.70932 824 ft 151 kts 35°
2026-04-27 15:15 6.30977 99.71510 504 ft 157 kts 34°
2026-04-27 15:15 6.31872 99.72108 219 ft 149 kts 32°
2026-04-27 15:15 6.32683 99.72662 47 ft 132 kts 34°
2026-04-27 15:16 6.33384 99.73144 41 ft 108 kts 34°
2026-04-27 15:16 6.33878 99.73482 41 ft 75 kts 32°
2026-04-27 15:16 6.34244 99.73734 42 ft 45 kts 34°
2026-04-27 15:16 6.34348 99.73787 42 ft 24 kts 11°
2026-04-27 15:17 6.34442 99.73718 41 ft 18 kts 272°
2026-04-27 15:17 6.34357 99.73610 40 ft 22 kts 212°
2026-04-27 15:17 6.34221 99.73519 40 ft 25 kts 214°
2026-04-27 15:17 6.34157 99.73456 40 ft 4 kts 259°
2026-04-27 15:18 6.34174 99.73399 39 ft 12 kts 298°
2026-04-27 15:18 6.34198 99.73360 39 ft 0 kts 304°